Weather History for KOXB - October, 2013

Change the Weather History Date:

Tuesday, October 29, 2013

  Actual Average (KSBY) Record (KSBY)
Temperature  
Mean Temperature 55 °F 53 °F  
Max Temperature 66 °F 64 °F 83 °F (1918)
Min Temperature 46 °F 42 °F 23 °F (2001)
Degree Days  
Heating Degree Days 10 12  
Month to date heating degree days 241  
Since 1 July heating degree days 289  
Cooling Degree Days 0 0  
Month to date cooling degree days 22  
Year to date cooling degree days 1147  
Growing Degree Days 5 (Base 50)    
Moisture  
Dew Point 49 °F    
Average Humidity 79    
Maximum Humidity 97    
Minimum Humidity 58    
Precipitation  
Precipitation 0.00 in 0.12 in 5.80 in (2012)
Month to date precipitation 3.25  
Year to date precipitation 38.30  
Snow  
Snow 0.00 in 0.00 in T in (1910)
Month to date snowfall 0.0  
Since 1 July snowfall 0.0  
Snow Depth -    
Sea Level Pressure  
Sea Level Pressure 30.31 in    
Wind  
Wind Speed 6 mph (NNE)    
Max Wind Speed 12 mph    
Max Gust Speed -    
Visibility 9 miles    
Events      
T = Trace of Precipitation, MM = Missing Value Source: NWS Daily Summary

Daily Weather History Graph

Daily Weather History Graph

Search for Another Location

Airport or City:

Trip Planner

Search our weather history database for the weather conditions in past years. The results will help you decide how hot, cold, wet, or windy it might be!

Date:

Astronomy

Oct. 29, 2013 Rise Set
Actual Time 7:23 AM EDT 6:04 PM EDT
Civil Twilight 6:56 AM EDT 6:31 PM EDT
Nautical Twilight 6:25 AM EDT 7:02 PM EDT
Astronomical Twilight 5:54 AM EDT 7:33 PM EDT
Moon 2:15 AM EDT (10/29) 3:12 PM EDT (10/29)
Length of Visible Light 11h 34m
Length of Day
10h 40m
Waning Crescent, 25% of the Moon is Illuminated
Oct 29
Waning Crescent
Nov 3
New
Nov 10
First Quarter
Nov 17
Full
Nov 25
Last Quarter

Hourly Weather History & Observations

Time (EDT) Temp. Dew Point Humidity Pressure Visibility Wind Dir Wind Speed Gust Speed Precip Events Conditions
12:53 AM 46.9 °F 46.0 °F 97% 30.26 in 4.0 mi NNW 3.5 mph - N/A   Clear
1:53 AM 48.9 °F 46.9 °F 93% 30.26 in 7.0 mi NNW 4.6 mph - N/A   Clear
2:53 AM 48.0 °F 46.0 °F 93% 30.26 in 7.0 mi NNW 4.6 mph - N/A   Clear
3:53 AM 48.9 °F 46.0 °F 90% 30.27 in 8.0 mi NNW 4.6 mph - N/A   Clear
4:53 AM 48.0 °F 45.0 °F 89% 30.27 in 7.0 mi NNW 6.9 mph - N/A   Clear
5:53 AM 48.9 °F 46.0 °F 90% 30.30 in 6.0 mi North 5.8 mph - N/A   Clear
6:53 AM 48.0 °F 46.0 °F 93% 30.30 in 7.0 mi North 5.8 mph - N/A   Clear
7:53 AM 48.0 °F 46.0 °F 93% 30.31 in 4.0 mi NNW 5.8 mph - N/A   Clear
8:53 AM 53.1 °F 50.0 °F 89% 30.32 in 7.0 mi NNW 4.6 mph - N/A   Clear
9:53 AM 60.1 °F 52.0 °F 75% 30.34 in 10.0 mi North 6.9 mph - N/A   Clear
10:53 AM 64.0 °F 54.0 °F 70% 30.34 in 10.0 mi NNE 9.2 mph - N/A   Clear
11:53 AM 64.9 °F 50.0 °F 58% 30.34 in 10.0 mi ENE 10.4 mph - N/A   Scattered Clouds
12:53 PM 64.9 °F 52.0 °F 63% 30.32 in 10.0 mi ENE 11.5 mph - N/A   Partly Cloudy
1:53 PM 63.0 °F 51.1 °F 65% 30.32 in 10.0 mi NE 9.2 mph - N/A   Mostly Cloudy
2:53 PM 63.0 °F 51.1 °F 65% 30.31 in 10.0 mi NE 11.5 mph - N/A   Clear
3:53 PM 63.0 °F 51.1 °F 65% 30.32 in 10.0 mi ENE 11.5 mph - N/A   Clear
4:53 PM 61.0 °F 51.1 °F 70% 30.32 in 10.0 mi ENE 9.2 mph - N/A   Clear
5:53 PM 59.0 °F 51.1 °F 75% 30.32 in 10.0 mi ENE 6.9 mph - N/A   Partly Cloudy
6:53 PM 57.9 °F 51.1 °F 78% 30.33 in 10.0 mi ENE 8.1 mph - N/A   Scattered Clouds
7:53 PM 57.9 °F 50.0 °F 75% 30.34 in 10.0 mi ENE 8.1 mph - N/A   Scattered Clouds
8:53 PM 57.9 °F 50.0 °F 75% 30.34 in 10.0 mi East 6.9 mph - N/A   Partly Cloudy
9:53 PM 57.9 °F 51.1 °F 78% 30.35 in 10.0 mi ENE 5.8 mph - N/A   Partly Cloudy
10:53 PM 57.9 °F 51.1 °F 78% 30.35 in 10.0 mi East 5.8 mph - N/A   Clear
11:53 PM 57.9 °F 52.0 °F 81% 30.34 in 10.0 mi East 5.8 mph - N/A   Clear